Powrót do katalogu

O3B FM18

AktywnyŁącznośćMEO
NORAD 44115·PAYLOAD·🇱🇺 Luxembourg

Wystrzelony Apr 4, 2019 z Guiana Space Centre

Loading…

Następne Przeloty (najbliższe 24 godziny)

TLE

ŚwieżeSource: CelesTrak SupGP

Epoka: Sep 13, 2026, 19:00 UTC

1 44115C 19020D   26256.79166667  .00000000  00000+0  00000+0 0  2560
2 44115   0.0546 353.3513 0002746 180.0016 140.9384  5.00115556    18

Śledź O3B FM18 w czasie rzeczywistym z AllMySat

Download on the App Store